Flag for Saudi Arabia Weather past 2 weeks in Medina, Saudi Arabia

Now
63 °F

Clear.


Feels Like: 63 °F
Forecast: 61 / 81 °F
Wind: No wind

Location: Madinah

Current Time: Dec 20, 2014 at 7:07:50 AM

Latest Report: Dec 20, 2014 at 6:00 AM


Visibility: 6 mi

Pressure: 30.09 "Hg

Humidity: 52%

Dew point: 45 °F

Location of MedinaLocation

Historic Weather in Medina — Graph

°F

Medina temperature yesterday

Maximum temperature yesterday: 82 °F (at 3:00 PM)
Minimum temperature yesterday: 63 °F (at 7:00 AM)
Average temperature yesterday: 72 °F

Past Weeks' High & Low Weather Summary

 TemperatureHumidityPressure
High90 °F (Dec 11, 3:00 PM)69% (Dec 19, 11:00 AM)30.36 "Hg (Dec 19, 11:00 AM)
Low55 °F (Dec 17, 7:00 AM)11% (Dec 6, 4:00 PM)29.98 "Hg (Dec 9, 2:00 PM)
Average73 °F32%30.12 "Hg
* Reported Dec 5 6:00 AM — Dec 20 6:00 AM, Medina, Weather by CustomWeather, © 2014

Note: Actual official high and low records may vary slightly from our data, if they occured in-between our weather recording intervals... More about our weather records

Advertising

Medina weather history for previous 24 hours

 ConditionsComfort  
Time TempWeatherWind HumidityBarometerVisibility
6:00 AM
Dec 20
63 °FClear.No wind52%30.09 "Hg6 mi
5:00 AM64 °FClear.3 mph46%30.09 "Hg6 mi
4:00 AM64 °FClear.No wind46%30.09 "Hg5 mi
3:00 AM66 °FClear.6 mph46%30.12 "Hg5 mi
2:00 AM68 °FClear.6 mph38%30.12 "Hg4 mi
1:00 AM70 °FClear.6 mph38%30.12 "Hg4 mi
12:00 AM70 °FClear.5 mph35%30.12 "Hg4 mi
11:00 PM
Dec 19
73 °FClear.No wind31%30.12 "Hg10 mi
10:00 PM77 °FClear.5 mph32%30.12 "Hg10 mi
9:00 PM77 °FClear.7 mph30%30.09 "Hg10 mi
8:00 PM77 °FClear.6 mph26%30.09 "Hg10 mi
7:00 PM79 °FClear.No wind24%30.07 "Hg10 mi
6:00 PM81 °FClear.5 mph23%30.07 "Hg10 mi
5:00 PM82 °FSunny.No wind21%30.07 "Hg10 mi
4:00 PM82 °FSunny.6 mph21%30.07 "Hg10 mi
3:00 PM82 °FSunny.No wind23%30.07 "Hg10 mi
2:00 PM81 °FSunny.No wind24%30.09 "Hg6 mi
1:00 PM77 °FSunny.8 mph28%30.12 "Hg6 mi
12:00 PM73 °FSunny.No wind31%30.15 "Hg6 mi
11:00 AM72 °FSunny.13 mph69%30.18 "Hg6 mi
10:00 AM70 °FSunny.10 mph38%30.21 "Hg5 mi
9:00 AM66 °FSunny.8 mph43%30.21 "Hg5 mi
8:00 AM63 °FSunny.7 mph45%30.18 "Hg5 mi
7:00 AM63 °FSunny.7 mph45%30.18 "Hg5 mi
Weather by CustomWeather, © 2014

See weather overviewHow to use our weather pages